カタログに戻る

PEGASUS DEB

運用中PO
NORAD 25449·DEBRIS·🇺🇸 United States

打ち上げ May 19, 1994 から Vandenberg Space Force Base

Loading…

次のパス (今後24時間)

TLE

最新Source: Space-Track

元期: Sep 14, 2026, 06:12 UTC

1 25449U 94029AED 26257.25870504  .00012840  00000-0  47761-2 0  9993
2 25449  82.0987 203.8769 0766258  61.7535 305.8775 13.32610307315781

AllMySatでPEGASUS DEBをリアルタイム追跡

Download on the App Store